Location: Unspecified
(0.0000°N, 0.0000°E)
Time: 03:40:45
(UTC+00:00)

Vanguard 3 - Pass Details

Date: 08 December 2017
Orbit: 508 x 3264 km, 33.3° (Epoch: 24 April)

Event Time Altitude Azimuth Distance (km) Brightness Sun altitude
Rises 20:53:44 0° 313° (NW) 4,366 11.1 -41.0°
Reaches altitude 10° 20:56:10 10° 317° (NW) 3,679 10.6 -41.5°
Enters shadow 20:59:41 29° 324° (NW) 2,845 9.8 -42.3°
Exits shadow 21:25:34 - 120° (ESE) 6,363 11.5 -47.7°
Sets 21:29:03 0° 121° (ESE) 7,157 11.8 -48.4°
